Location: Unspecified
(49.9820°N, 20.4363°E)
Time: 04:50:14
(UTC+02:00)

Vanguard 3 - Pass Details

Date: 16 May 2026
Orbit: 507 x 3204 km, 33.3° (Epoch: 6 June)

Event Time Altitude Azimuth Distance (km) Brightness Sun altitude
Rises 10:57:33 0° 178° (S) 6,195 12.1 53.6°
Reaches altitude 10° 11:04:38 10° 157° (SSE) 5,657 12.2 54.3°
Maximum altitude 11:12:20 14° 131° (SE) 5,608 12.3 55.1°
Drops below altitude 10° 11:20:30 10° 106° (ESE) 6,126 12.1 55.8°
Sets 11:28:44 0° 87° (E) 7,059 12.1 56.5°
